Address 0x88928ff265a144aef2c5e228d536d9e477a68cfc

Txn Hash Method
Block
From
To
Value [Txn Fee]
0xb3ffc52a3be7ddd246e1ef4e1bb0b82265b203a3786eb5b430513bceb06b0458Swap Exact Token...751033942022-09-28 16:24:4110 mins ago0x88928ff265a144aef2c5e228d536d9e477a68cfcOUTTrisolaris: Router0 ETH0.000003167764
0x5a099cbff5b34d7fd96c5e306652a041126c87fa21306d8c788b5e12ff39f270Swap Exact Token...751033832022-09-28 16:24:2810 mins ago0x88928ff265a144aef2c5e228d536d9e477a68cfcOUTTrisolaris: Router0 ETH0.000008457012
0x2374b8bb0a415c547c73afcc9936468daa134c02f6557ed30b3b2068c404fd69Swap Exact Token...751031252022-09-28 16:19:2015 mins ago0x88928ff265a144aef2c5e228d536d9e477a68cfcOUTTrisolaris: Router0 ETH0.00000257049
0x80bfb3467df1ed3e6e3c244cff9597bb51811837a8ed30cec8a000f163aff288Swap Exact Token...751019582022-09-28 15:55:3139 mins ago0x88928ff265a144aef2c5e228d536d9e477a68cfcOUTTrisolaris: Router0 ETH0.000003172612
0x4fc400073d0980c0abbee73f1876518dc1cfce5cd4182bd151fc50af9fff424aSwap Exact Token...751019492022-09-28 15:55:2039 mins ago0x88928ff265a144aef2c5e228d536d9e477a68cfcOUTTrisolaris: Router0 ETH0.00000845677
0x81e4d41b86220f3f447b9f6558e56b39befe8a33f993df189dfb8718ec0035ffSwap Exact Token...751019462022-09-28 15:55:1739 mins ago0x88928ff265a144aef2c5e228d536d9e477a68cfcOUTTrisolaris: Router0 ETH0.000002568066
0x7ddd318e068176ef96c4fc60839cdbfb821f79c598af115358fa5bce1afa79b0Swap Exact Token...751019392022-09-28 15:55:0939 mins ago0x88928ff265a144aef2c5e228d536d9e477a68cfcOUTTrisolaris: Router0 ETH0.000008451356
0x270151b7bcc2d0e1297b051531501fdb759b5da868b72a1ec745d67b85d4dbe4Swap Exact Token...751019322022-09-28 15:55:0040 mins ago0x88928ff265a144aef2c5e228d536d9e477a68cfcOUTTrisolaris: Router0 ETH0.000002568066
0x003906bf32c9f4daf246781bc82a3fe1b9c83ece0d5a0f68c3ccda904cb1770aSwap Exact Token...750985372022-09-28 14:47:131 hr 47 mins ago0x88928ff265a144aef2c5e228d536d9e477a68cfcOUTTrisolaris: Router0 ETH0.000008430591
0xef53a568f36cec894e029d8ccc095af48412080b5173bb93da99e2a91768664fSwap Exact Token...750984952022-09-28 14:46:211 hr 48 mins ago0x88928ff265a144aef2c5e228d536d9e477a68cfcOUTTrisolaris: Router0 ETH0.000008450387
0x9da94660cb090f1e101a2c64ff6082c0374e41d4d973bc3f504b88bae1efef63Swap Exact Token...750983522022-09-28 14:43:311 hr 51 mins ago0x88928ff265a144aef2c5e228d536d9e477a68cfcOUTTrisolaris: Router0 ETH0.000008429621
0x28a1ddb6320c41fba8bf069d45c6bfbdef3a089e58454b049a2e2e86bebaf045Swap Exact Token...750980812022-09-28 14:38:151 hr 56 mins ago0x88928ff265a144aef2c5e228d536d9e477a68cfcOUTTrisolaris: Router0 ETH0.000007597139
0xfc7919f03d07bff9e5aaa978508b0701670a16575b0fd9f69d31b43007cbe687Swap Exact Token...750977902022-09-28 14:32:352 hrs 2 mins ago0x88928ff265a144aef2c5e228d536d9e477a68cfcOUTTrisolaris: Router0 ETH0.000008450387
0x437575659677cca51b9b73b22d75b5500bbf53c53cf2f5b729dcc5a650e340c8Swap Exact Token...750976792022-09-28 14:30:232 hrs 4 mins ago0x88928ff265a144aef2c5e228d536d9e477a68cfcOUTTrisolaris: Router0 ETH0.000008430591
0x85893b8f05b8e79bb45437e9281b21d0514d425e140b6c7e48dfba4ed843a919Swap Exact Token...750976402022-09-28 14:29:362 hrs 5 mins ago0x88928ff265a144aef2c5e228d536d9e477a68cfcOUTTrisolaris: Router0 ETH0.000008450387
0x900aa5b061d64c1cb29c2c4fa165ab3acc80362a7c1d741deb26d381b9569ec1Swap Exact Token...750976392022-09-28 14:29:352 hrs 5 mins ago0x88928ff265a144aef2c5e228d536d9e477a68cfcOUTTrisolaris: Router0 ETH0.000008451356
0xa8d0114d20ef2df1cd7d01d4dcfff3ffa680fd67b5521ccd4b3ca0c10cd9eefcSwap Exact Token...750975192022-09-28 14:27:132 hrs 7 mins ago0x88928ff265a144aef2c5e228d536d9e477a68cfcOUTTrisolaris: Router0 ETH0.000008450387
0x2b657bf1047530bbe75d4a1bfe9f9fe754df41822e1f64b174e297a4c5503687Swap Exact Token...750944392022-09-28 13:24:503 hrs 10 mins ago0x88928ff265a144aef2c5e228d536d9e477a68cfcOUTTrisolaris: Router0 ETH0.000007577343
0xc07a574f45741b813c3f2a00119a9d171e2b3b8fd6a9002556f6c520436710e7Swap Exact Token...750944092022-09-28 13:24:113 hrs 10 mins ago0x88928ff265a144aef2c5e228d536d9e477a68cfcOUTTrisolaris: Router0 ETH0.000008429621
0xcc3cc81e339453e2f3435c10445b310b8428302f662a51ff58707264f5280f5cSwap Exact Token...750943762022-09-28 13:23:273 hrs 11 mins ago0x88928ff265a144aef2c5e228d536d9e477a68cfcOUTTrisolaris: Router0 ETH0.000008449417
0x7f9339982e7cd77fca331d821fafeabefdf3c3072d1eac067bf441992e026804Swap Exact Token...750943742022-09-28 13:23:243 hrs 11 mins ago0x88928ff265a144aef2c5e228d536d9e477a68cfcOUTTrisolaris: Router0 ETH0.000008430591
0x163e6999bf48bdec84a7a590d95139a22925cdb954937ba89d6f99b7315fdebcSwap Exact Token...750943172022-09-28 13:22:103 hrs 12 mins ago0x88928ff265a144aef2c5e228d536d9e477a68cfcOUTTrisolaris: Router0 ETH0.000008450387
0x90352eb2e3e4733772ad511f5fe26786c6dc3c9f536beeb78563577d0e92cbe0Swap Exact Token...750925472022-09-28 12:44:473 hrs 50 mins ago0x88928ff265a144aef2c5e228d536d9e477a68cfcOUTTrisolaris: Router0 ETH0.000008430591
0x1763b516024b5fdfe409e03693852bd924935cf27b72778c9c55355680c49f06Swap Exact Token...750906392022-09-28 12:07:194 hrs 27 mins ago0x88928ff265a144aef2c5e228d536d9e477a68cfcOUTTrisolaris: Router0 ETH0.000008450387
0x05f5ddd2e9ed40798537e8d6b2b0d5c705d620441ab53beaf41ae6922028a1baSwap Exact Token...750904492022-09-28 12:03:304 hrs 31 mins ago0x88928ff265a144aef2c5e228d536d9e477a68cfcOUTTrisolaris: Router0 ETH0.000008451356
[ Download CSV Export 
Parent Txn Hash Block From To Value
Loading

Contract Name:
0

Compiler Version
0

Optimization Enabled:
0

Other Settings:
-NA-
Block Transaction Gas Used Reward
Age Block Fee Address BC Fee Address Voting Power Jailed Incoming
Block Uncle Number Difficulty Gas Used Reward
Loading
Make sure to use the "Vote Down" button for any spammy posts, and the "Vote Up" for interesting conversations.